Lacon, IL

2:13 AM CST on December 08, 2019 (GMT -0600)
Lacon

Weather History for KC75 - October, 2019

Change the Weather History Date:

Sunday, October 27, 2019

  Actual Average (WUND) Record (WUND)
Temperature  
Mean Temperature 50 °F -  
Max Temperature 62 °F - - (-1)
Min Temperature 37 °F - - (-1)
Degree Days  
Heating Degree Days 16    
Moisture  
Dew Point 43 °F    
Average Humidity 84    
Maximum Humidity 99    
Minimum Humidity 54    
Precipitation  
Precipitation 0.02 in - - ()
Sea Level Pressure  
Sea Level Pressure 29.88 in    
Wind  
Wind Speed 5 mph (SW)    
Max Wind Speed 9 mph    
Max Gust Speed -    
Visibility 7 miles    
Events Rain    
Averages and records for this station are not official NWS values.
T = Trace of Precipitation, MM = Missing Value Source: NWS Daily Summary

Daily Weather History Graph

Daily Weather History Graph

Search for Another Location

Airport or City:

Astronomy

Oct. 27, 2019 Rise Set
Actual Time 7:22 AM CDT 5:59 PM CDT
Civil Twilight 6:53 AM CDT 6:27 PM CDT
Nautical Twilight 6:21 AM CDT 7:00 PM CDT
Astronomical Twilight 5:49 AM CDT 7:32 PM CDT
Moon 6:29 AM CDT (10/27) 6:09 PM CDT (10/27)
Length of Visible Light 11h 34m
Length of Day
10h 37m
Waning Crescent, 0% of the Moon is Illuminated
Oct 27
Waning Crescent
Oct 27
New
Nov 4
First Quarter
Nov 12
Full
Nov 19
Last Quarter

Hourly Weather History & Observations

Time (CDT) Temp. Windchill Dew Point Humidity Pressure Visibility Wind Dir Wind Speed Gust Speed Precip Events Conditions
12:15 AM 45.7 °F 41.0 °F 44.8 °F 97% 29.62 in 7.0 mi WNW 9.2 mph - 0.01 in Rain Light Rain
12:35 AM 45.9 °F 42.3 °F 45.0 °F 97% 29.63 in 7.0 mi WNW 6.9 mph - 0.02 in Rain Rain
12:55 AM 45.5 °F 41.3 °F 44.6 °F 97% 29.65 in 7.0 mi WNW 8.1 mph - 0.02 in   Light Drizzle
1:15 AM 45.5 °F 42.5 °F 44.6 °F 97% 29.66 in 7.0 mi West 5.8 mph - N/A   Overcast
1:35 AM 46.0 °F 43.9 °F 45.0 °F 96% 29.68 in 7.0 mi WNW 4.6 mph - N/A   Overcast
1:55 AM 45.1 °F 43.7 °F 43.9 °F 95% 29.70 in 5.0 mi West 3.5 mph - N/A   Overcast
2:15 AM 44.6 °F 41.4 °F 43.2 °F 95% 29.70 in 5.0 mi West 5.8 mph - N/A   Overcast
2:30 AM 43.9 °F 39.9 °F 42.8 °F 96% 29.71 in 5.0 mi WSW 6.9 mph - N/A   Mostly Cloudy
2:55 AM 43.2 °F 38.4 °F 41.7 °F 95% 29.73 in 5.0 mi WSW 8.1 mph - N/A   Scattered Clouds
3:15 AM 41.9 °F 39.0 °F 40.6 °F 95% 29.75 in 5.0 mi WSW 4.6 mph - N/A   Mostly Cloudy
3:35 AM 41.2 °F 37.3 °F 39.9 °F 95% 29.76 in 5.0 mi West 5.8 mph - N/A   Scattered Clouds
3:55 AM 40.5 °F 36.5 °F 39.2 °F 95% 29.77 in 5.0 mi SW 5.8 mph - N/A   Clear
4:15 AM 39.7 °F 35.6 °F 38.7 °F 96% 29.79 in 4.0 mi WSW 5.8 mph - N/A   Clear
4:35 AM 39.4 °F 36.1 °F 38.3 °F 96% 29.79 in 4.0 mi SW 4.6 mph - N/A   Clear
4:55 AM 39.2 °F 35.0 °F 38.1 °F 96% 29.80 in 5.0 mi WSW 5.8 mph - N/A   Clear
5:15 AM 39.2 °F 34.2 °F 37.9 °F 95% 29.81 in 5.0 mi West 6.9 mph - N/A   Clear
5:30 AM 39.2 °F 33.6 °F 37.9 °F 95% 29.82 in 5.0 mi WSW 8.1 mph - N/A   Clear
5:55 AM 39.2 °F 35.0 °F 37.8 °F 95% 29.83 in 5.0 mi SW 5.8 mph - N/A   Clear
6:15 AM 37.8 °F 34.2 °F 36.9 °F 97% 29.83 in 3.0 mi SW 4.6 mph - N/A   Clear
6:35 AM 37.9 °F 34.4 °F 37.2 °F 97% 29.84 in 3.0 mi SW 4.6 mph - N/A   Clear
6:55 AM 37.8 °F 34.2 °F 37.0 °F 97% 29.85 in 3.0 mi SW 4.6 mph - N/A   Clear
7:15 AM 37.0 °F 33.3 °F 36.3 °F 97% 29.87 in 2.5 mi SW 4.6 mph - N/A   Clear
7:35 AM 37.4 °F 32.8 °F 36.9 °F 98% 29.88 in 2.0 mi WSW 5.8 mph - N/A   Clear
7:55 AM 37.9 °F 32.7 °F 37.0 °F 97% 29.89 in 2.5 mi WSW 6.9 mph - N/A   Clear
8:15 AM 38.7 °F 35.2 °F 37.4 °F 95% 29.91 in 3.0 mi SW 4.6 mph - N/A   Clear
8:35 AM 39.4 °F - 38.1 °F 95% 29.91 in 2.0 mi Calm Calm - N/A   Clear
8:55 AM 40.5 °F 38.4 °F 38.8 °F 94% 29.93 in 2.5 mi WSW 3.5 mph - N/A   Clear
9:15 AM 41.9 °F 40.0 °F 39.4 °F 91% 29.93 in 4.0 mi SW 3.5 mph - N/A   Clear
9:35 AM 43.9 °F - 40.6 °F 88% 29.93 in 4.0 mi Calm Calm - N/A   Clear
9:55 AM 45.1 °F - 41.2 °F 86% 29.94 in 4.0 mi Calm Calm - N/A   Clear
10:15 AM 46.4 °F 45.2 °F 41.9 °F 84% 29.93 in 5.0 mi South 3.5 mph - N/A   Clear
10:35 AM 47.7 °F - 42.6 °F 83% 29.93 in 5.0 mi SSW 3.5 mph - N/A   Haze
10:55 AM 49.3 °F - 43.2 °F 79% 29.94 in 7.0 mi Calm Calm - N/A   Clear
11:15 AM 50.9 °F - 43.0 °F 74% 29.95 in 7.0 mi Calm Calm - N/A   Clear
11:35 AM 52.2 °F - 43.7 °F 73% 29.95 in 7.0 mi Calm Calm - N/A   Clear
11:55 AM 53.6 °F - 44.4 °F 71% 29.94 in 7.0 mi South 3.5 mph - N/A   Clear
12:15 PM 54.7 °F - 44.6 °F 69% 29.93 in 10.0 mi South 4.6 mph - N/A   Clear
12:35 PM 55.9 °F - 44.8 °F 66% 29.93 in 10.0 mi WSW 5.8 mph - N/A   Clear
12:55 PM 56.7 °F - 44.8 °F 64% 29.93 in 10.0 mi SW 6.9 mph - N/A   Clear
1:15 PM 58.1 °F - 45.9 °F 64% 29.92 in 10.0 mi WSW 8.1 mph - N/A   Clear
1:35 PM 59.4 °F - 46.9 °F 63% 29.92 in 10.0 mi SW 6.9 mph - N/A   Clear
1:55 PM 59.9 °F - 46.0 °F 60% 29.92 in 10.0 mi SW 8.1 mph - N/A   Clear
2:15 PM 60.8 °F - 46.9 °F 60% 29.91 in 10.0 mi SSW 9.2 mph - N/A   Clear
2:35 PM 61.3 °F - 47.5 °F 60% 29.91 in 10.0 mi SSW 9.2 mph - N/A   Clear
2:55 PM 62.2 °F - 47.5 °F 58% 29.92 in 10.0 mi SW 9.2 mph - N/A   Clear
3:15 PM 62.4 °F - 47.7 °F 58% 29.92 in 10.0 mi SW 8.1 mph - N/A   Clear
3:35 PM 62.6 °F - 45.7 °F 54% 29.92 in 10.0 mi SW 6.9 mph - N/A   Clear
3:55 PM 62.6 °F - 45.7 °F 54% 29.92 in 10.0 mi SSW 9.2 mph - N/A   Clear
4:15 PM 62.6 °F - 45.7 °F 54% 29.92 in 10.0 mi SSW 6.9 mph - N/A   Clear
4:35 PM 62.1 °F - 46.6 °F 57% 29.92 in 10.0 mi SSW 8.1 mph - N/A   Clear
4:55 PM 61.7 °F - 47.3 °F 59% 29.93 in 10.0 mi SSW 8.1 mph - N/A   Clear
5:15 PM 61.0 °F - 47.8 °F 62% 29.93 in 10.0 mi SSW 5.8 mph - N/A   Clear
5:35 PM 59.9 °F - 48.2 °F 65% 29.93 in 10.0 mi SSW 5.8 mph - N/A   Clear
5:55 PM 57.7 °F - 47.7 °F 69% 29.93 in 10.0 mi Calm Calm - N/A   Clear
6:15 PM 57.0 °F - 47.5 °F 70% 29.94 in 10.0 mi South 3.5 mph - N/A   Clear
6:35 PM 55.0 °F - 46.9 °F 74% 29.94 in 10.0 mi Calm Calm - N/A   Clear
6:55 PM 53.6 °F - 47.1 °F 79% 29.95 in 10.0 mi Calm Calm - N/A   Clear
7:15 PM 54.0 °F - 47.7 °F 79% 29.95 in 10.0 mi Calm Calm - N/A   Clear
7:35 PM 53.1 °F - 47.8 °F 82% 29.95 in 10.0 mi Calm Calm - N/A   Clear
7:55 PM 50.9 °F - 47.5 °F 88% 29.96 in 10.0 mi Calm Calm - N/A   Clear
8:15 PM 47.3 °F - 44.8 °F 91% 29.96 in 10.0 mi Calm Calm - N/A   Clear
8:35 PM 46.8 °F - 44.8 °F 93% 29.97 in 10.0 mi Calm Calm - N/A   Clear
8:55 PM 46.8 °F - 45.3 °F 95% 29.97 in 10.0 mi Calm Calm - N/A   Clear
9:15 PM 45.0 °F - 43.9 °F 96% 29.98 in 10.0 mi Calm Calm - N/A   Clear
9:35 PM 43.7 °F - 42.8 °F 97% 29.98 in 10.0 mi Calm Calm - N/A   Clear
9:55 PM 43.7 °F - 42.8 °F 97% 29.98 in 10.0 mi Calm Calm - N/A   Clear
10:15 PM 43.3 °F - 42.8 °F 98% 29.99 in 10.0 mi Calm Calm - N/A   Clear
10:35 PM 42.1 °F - 41.4 °F 97% 29.99 in 10.0 mi Calm Calm - N/A   Clear
10:55 PM 41.5 °F - 41.0 °F 98% 30.00 in 10.0 mi Calm Calm - N/A   Clear
11:15 PM 41.0 °F - 40.6 °F 99% 30.00 in 7.0 mi Calm Calm - N/A   Clear
11:35 PM 39.7 °F - 39.4 °F 99% 30.01 in 7.0 mi Calm Calm - N/A   Clear
11:55 PM 40.3 °F - 40.1 °F 99% 30.02 in 10.0 mi Calm Calm - N/A   Clear